When you browse on this site, cookies collect data to enhance your experience and personalize the content and advertising you see.
Visit our Privacy Policy to learn more. By continuing to use the site, you agree to this use of cookies and data.
  • In Lithuania
  • List of Countries
  • For 7 days
  • Water Temperature
  • Satellite Maps
  • Weather Map
  • Weather Widgets
  • user-avatar
    Login

    Hourly Weather Voloshky

    Today, 19 January, Saturday

    Time Temperature Precipitation Wind Pressure Humidity
    00:00 -5°C° 0 mm 3 mps 747 mmHg 89%
    01:00 -6°C° 0 mm 3 mps 747 mmHg 89%
    02:00 -6°C° 0 mm 2 mps 747 mmHg 91%
    03:00 -7°C° 0 mm 3 mps 747 mmHg 91%
    04:00 -7°C° 0 mm 3 mps 748 mmHg 91%
    05:00 -7°C° 0 mm 3 mps 748 mmHg 92%
    06:00 -7°C° 0 mm 3 mps 748 mmHg 92%
    07:00 -7°C° 0 mm 3 mps 749 mmHg 93%
    08:00 -7°C° 0 mm 3 mps 749 mmHg 93%
    09:00 -6°C° 0 mm 3 mps 749 mmHg 91%
    10:00 -6°C° 0 mm 3 mps 749 mmHg 89%
    11:00 -5°C° 0 mm 4 mps 750 mmHg 87%
    12:00 -4°C° 0 mm 3 mps 750 mmHg 85%
    13:00 -4°C° 0 mm 3 mps 750 mmHg 84%
    14:00 -2°C° 0 mm 3 mps 750 mmHg 82%
    15:00 -4°C° 0 mm 3 mps 750 mmHg 84%
    16:00 -4°C° 0 mm 2 mps 750 mmHg 87%
    17:00 -5°C° 0 mm 2 mps 750 mmHg 89%
    18:00 -5°C° 0 mm 2 mps 750 mmHg 89%
    19:00 -5°C° 0 mm 2 mps 750 mmHg 90%
    20:00 -4°C° 0 mm 1 mps 750 mmHg 90%
    21:00 -6°C° 0 mm 2 mps 750 mmHg 90%
    22:00 -6°C° 0 mm 2 mps 750 mmHg 91%
    23:00 -7°C° 0 mm 2 mps 750 mmHg 91%

    Tomorrow, 20 January, Sunday

    Time Temperature Precipitation Wind Pressure Humidity
    00:00 -7°C° 0 mm 2 mps 750 mmHg 91%
    01:00 -7°C° 0 mm 2 mps 750 mmHg 91%
    02:00 -7°C° 0 mm 2 mps 750 mmHg 92%
    03:00 -7°C° 0 mm 2 mps 749 mmHg 91%
    04:00 -8°C° 0 mm 2 mps 749 mmHg 91%
    05:00 -8°C° 0 mm 2 mps 749 mmHg 91%
    06:00 -8°C° 0 mm 2 mps 749 mmHg 90%
    07:00 -7°C° 0 mm 1 mps 748 mmHg 90%
    08:00 -7°C° 0 mm 1 mps 748 mmHg 89%
    09:00 -6°C° 0 mm 1 mps 748 mmHg 88%
    10:00 -6°C° 0 mm 1 mps 748 mmHg 87%
    11:00 -4°C° 0 mm 1 mps 748 mmHg 86%
    12:00 -3°C° 0 mm 1 mps 748 mmHg 85%
    13:00 -3°C° 0 mm 1 mps 747 mmHg 84%
    14:00 -3°C° 0 mm 0 mps 747 mmHg 83%
    15:00 -4°C° 0 mm 0 mps 747 mmHg 86%
    16:00 -5°C° 0 mm 0 mps 747 mmHg 89%
    17:00 -5°C° 0 mm 0 mps 747 mmHg 91%
    18:00 -6°C° 0 mm 0 mps 747 mmHg 91%
    19:00 -6°C° 0 mm 1 mps 747 mmHg 91%
    20:00 -6°C° 0 mm 1 mps 747 mmHg 91%
    21:00 -6°C° 0 mm 1 mps 747 mmHg 90%
    22:00 -6°C° 0 mm 1 mps 747 mmHg 89%
    23:00 -8°C° 0 mm 2 mps 747 mmHg 89%

    Day after tomorrow, 21 January, Monday

    Time Temperature Precipitation Wind Pressure Humidity
    00:00 -8°C° 0 mm 2 mps 747 mmHg 89%
    01:00 -8°C° 0 mm 2 mps 748 mmHg 89%
    02:00 -8°C° 0 mm 2 mps 748 mmHg 89%
    03:00 -8°C° 0 mm 2 mps 748 mmHg 91%
    04:00 -8°C° 0 mm 2 mps 748 mmHg 93%
    05:00 -8°C° 0 mm 2 mps 748 mmHg 94%
    06:00 -7°C° 0 mm 2 mps 749 mmHg 94%
    07:00 -6°C° 0 mm 2 mps 749 mmHg 93%
    08:00 -6°C° 0 mm 2 mps 749 mmHg 93%
    09:00 -6°C° 0 mm 2 mps 750 mmHg 91%
    10:00 -3°C° 0 mm 1 mps 750 mmHg 89%
    11:00 -3°C° 0 mm 1 mps 751 mmHg 87%
    12:00 -3°C° 0 mm 1 mps 751 mmHg 86%
    13:00 -2°C° 0 mm 1 mps 751 mmHg 84%
    14:00 -2°C° 0 mm 1 mps 751 mmHg 83%
    15:00 -3°C° 0 mm 1 mps 751 mmHg 86%
    16:00 -4°C° 0 mm 1 mps 751 mmHg 88%
    17:00 -6°C° 0 mm 1 mps 751 mmHg 90%
    18:00 -7°C° 0 mm 2 mps 750 mmHg 90%
    19:00 -8°C° 0 mm 2 mps 750 mmHg 90%
    20:00 -8°C° 0 mm 2 mps 750 mmHg 91%
    21:00 -8°C° 0 mm 2 mps 750 mmHg 91%
    22:00 -8°C° 0 mm 2 mps 750 mmHg 91%
    23:00 -9°C° 0 mm 2 mps 750 mmHg 91%

    22 January, Tuesday

    Time Temperature Precipitation Wind Pressure Humidity
    00:00 -9°C° 0 mm 2 mps 750 mmHg 92%
    01:00 -9°C° 0 mm 2 mps 750 mmHg 92%
    02:00 -9°C° 0 mm 2 mps 749 mmHg 93%
    03:00 -9°C° 0 mm 2 mps 749 mmHg 93%
    04:00 -9°C° 0 mm 2 mps 748 mmHg 93%
    05:00 -9°C° 0 mm 2 mps 748 mmHg 93%
    06:00 -9°C° 0 mm 2 mps 748 mmHg 93%
    07:00 -9°C° 0 mm 2 mps 747 mmHg 93%
    08:00 -9°C° 0 mm 2 mps 747 mmHg 92%
    09:00 -9°C° 0 mm 3 mps 747 mmHg 92%
    10:00 -9°C° 0 mm 3 mps 747 mmHg 91%
    11:00 -8°C° 0 mm 3 mps 747 mmHg 90%
    12:00 -7°C° 0 mm 3 mps 746 mmHg 90%
    13:00 -6°C° 0 mm 2 mps 746 mmHg 90%
    14:00 -6°C° 0 mm 2 mps 746 mmHg 89%
    15:00 -6°C° 0 mm 2 mps 745 mmHg 90%
    16:00 -6°C° 0 mm 2 mps 745 mmHg 91%
    17:00 -7°C° 0 mm 2 mps 744 mmHg 92%
    18:00 -7°C° 0 mm 2 mps 744 mmHg 92%
    19:00 -7°C° 0 mm 2 mps 744 mmHg 93%
    20:00 -7°C° 0 mm 2 mps 744 mmHg 93%
    21:00 -7°C° 0 mm 2 mps 744 mmHg 94%
    22:00 -7°C° 0 mm 2 mps 744 mmHg 94%
    23:00 -8°C° 0 mm 2 mps 744 mmHg 94%

    23 January, Wednesday

    Time Temperature Precipitation Wind Pressure Humidity
    00:00 -8°C° 0 mm 2 mps 744 mmHg 94%
    01:00 -7°C° 0 mm 2 mps 743 mmHg 94%
    02:00 -7°C° 0 mm 2 mps 743 mmHg 94%
    03:00 -8°C° 0 mm 2 mps 743 mmHg 94%
    04:00 -8°C° 0 mm 2 mps 743 mmHg 93%
    05:00 -8°C° 0 mm 2 mps 742 mmHg 93%
    06:00 -9°C° 0 mm 3 mps 742 mmHg 94%
    07:00 -10°C° 0 mm 3 mps 742 mmHg 95%
    08:00 -12°C° 0 mm 3 mps 742 mmHg 95%
    09:00 -10°C° 0 mm 3 mps 743 mmHg 94%
    10:00 -9°C° 0 mm 3 mps 743 mmHg 93%
    11:00 -10°C° 0 mm 4 mps 743 mmHg 91%
    12:00 -9°C° 0 mm 4 mps 743 mmHg 91%
    13:00 -9°C° 0 mm 4 mps 743 mmHg 91%
    14:00 -8°C° 0 mm 4 mps 743 mmHg 90%
    15:00 -8°C° 0 mm 4 mps 743 mmHg 90%
    16:00 -8°C° 0 mm 5 mps 743 mmHg 90%
    17:00 -8°C° 0 mm 5 mps 743 mmHg 91%
    18:00 -8°C° 0 mm 5 mps 743 mmHg 90%
    19:00 -8°C° 0 mm 5 mps 743 mmHg 90%
    20:00 -8°C° 0 mm 5 mps 743 mmHg 89%
    21:00 -8°C° 0 mm 5 mps 743 mmHg 89%
    22:00 -8°C° 0 mm 4 mps 743 mmHg 90%
    23:00 -8°C° 0 mm 4 mps 743 mmHg 90%

    24 January, Thursday

    Time Temperature Precipitation Wind Pressure Humidity
    00:00 -8°C° 0 mm 4 mps 743 mmHg 90%
    01:00 -7°C° 0 mm 4 mps 743 mmHg 91%
    02:00 -7°C° 0 mm 4 mps 742 mmHg 92%
    03:00 -7°C° 0.1 mm 5 mps 742 mmHg 92%
    04:00 -7°C° 0.1 mm 5 mps 742 mmHg 92%
    05:00 -7°C° 0.1 mm 5 mps 742 mmHg 92%
    06:00 -7°C° 0.1 mm 5 mps 742 mmHg 92%
    07:00 -7°C° 0.1 mm 5 mps 742 mmHg 92%
    08:00 -7°C° 0.1 mm 5 mps 742 mmHg 92%
    09:00 -7°C° 0.2 mm 5 mps 742 mmHg 92%
    10:00 -7°C° 0.2 mm 5 mps 742 mmHg 92%
    11:00 -7°C° 0.2 mm 5 mps 742 mmHg 92%
    12:00 -7°C° 0.1 mm 5 mps 742 mmHg 92%
    13:00 -6°C° 0.1 mm 5 mps 742 mmHg 92%
    14:00 -6°C° 0.1 mm 5 mps 742 mmHg 91%
    15:00 -6°C° 0.2 mm 5 mps 742 mmHg 92%
    16:00 -6°C° 0.2 mm 5 mps 742 mmHg 92%
    17:00 -6°C° 0.2 mm 5 mps 742 mmHg 92%
    18:00 -6°C° 0.2 mm 5 mps 742 mmHg 92%
    19:00 -6°C° 0.2 mm 5 mps 742 mmHg 92%
    20:00 -6°C° 0.2 mm 5 mps 742 mmHg 92%
    21:00 -7°C° 0.2 mm 4 mps 743 mmHg 92%
    22:00 -7°C° 0.2 mm 4 mps 743 mmHg 92%
    23:00 -7°C° 0.2 mm 4 mps 743 mmHg 92%
    Show more